Location: Unspecified
(48.7670°N, 0.0000°E)
Time: 05:10:44
(UTC+00:00)

Vanguard 2 Rocket - Pass Details

Date: 17 June 2019
Orbit: 554 x 3326 km, 32.9° (Epoch: 23 July)

Event Time Altitude Azimuth Distance (km) Brightness Sun altitude
Rises 21:01:38 0° 193° (SSW) 4,363 10.0 -7.5°
Reaches altitude 10° 21:05:30 10° 174° (S) 3,837 9.6 -7.9°
Maximum altitude 21:11:52 18° 136° (SE) 3,906 9.5 -8.6°
Drops below altitude 10° 21:20:16 10° 101° (E) 5,296 10.3 -9.4°
Sets 21:27:12 0° 87° (E) 6,798 11.0 -10.1°
